Volver al catálogo

FENGYUN 1C DEB

ActivoSSO
NORAD 30509·DEBRIS·🇨🇳 China

Lanzado May 10, 1999 desde Taiyuan Satellite Launch Center

Loading…

Próximos Pases (próximas 24 horas)

TLE

ActualizadoSource: Space-Track

Época: Sep 14, 2026, 13:23 UTC

1 30509U 99025AHX 26257.55829985  .00001725  00000-0  97044-3 0  9997
2 30509  98.4534 117.4667 0101765   0.0043  29.4701 14.09086577996050

Sigue FENGYUN 1C DEB en tiempo real con AllMySat

Download on the App Store